Regional Weather Roundup
Issued by NWS

Home | Current Version | Previous Version | Graphics & Text | Print | Product List | Glossary On
Versions: 1 2 3 4 5 6 7 8 9 10 11 12 13 14 15 16 17 18 19 20 21 22 23 24 25 26 27 28 29 30 31 32 33 34 35 36 37 38 39 40 41 42 43 44 45 46 47 48 49 50
000
ASUS43 KOAX 231902
RWRNE

WEATHER ROUNDUP FOR NEBRASKA
NATIONAL WEATHER SERVICE OMAHA NE
200 PM CDT SAT SEP 23 2017

NOTES: SATELLITE DATA IS BEING USED TO AUGMENT CLOUD COVER ABOVE
       12000 FEET.
       "FAIR" INDICATES FEW OR NO CLOUDS BELOW 12,000 FEET WITH NO
       SIGNIFICANT WEATHER AND/OR OBSTRUCTIONS TO VISIBILITY.


NEZ001>004-019>022-054>056-232000-
NEBRASKA PANHANDLE

CITY           SKY/WX    TMP DP  RH WIND       PRES   REMARKS
SCOTTSBLUFF    CLOUDY    46  42  86 NE3       30.03R
ALLIANCE       LGT RAIN  45  43  93 N10       30.00S
CHADRON        LGT RAIN  46  43  89 NE15      30.01F
GORDON         LGT RAIN  46  44  95 N9        30.02S
KIMBALL        CLOUDY    44  44 100 NE7       30.01F FOG
SIDNEY         LGT RAIN  46  45  96 NE7       30.03R
$$

NEZ057>060-069>072-079>082-232000-
SOUTHWEST NEBRASKA

CITY           SKY/WX    TMP DP  RH WIND       PRES   REMARKS
NORTH PLATTE   CLOUDY    55  54  96 NE7       29.94F
IMPERIAL       LGT RAIN  54  51  90 N10       29.98R
LEXINGTON      CLOUDY    84  64  50 S15       29.87F
MCCOOK         PTSUNNY   82  65  56 W13       29.87F
OGALLALA       TSTM      52  51  95 N6        30.00F
$$

NEZ005>010-023>029-035>040-094-232000-
NORTH CENTRAL NEBRASKA

CITY           SKY/WX    TMP DP  RH WIND       PRES   REMARKS
VALENTINE      CLOUDY    51  49  92 NE10      30.00S FOG
AINSWORTH      RAIN      50  50 100 N7        29.98F
BROKEN BOW     CLOUDY    60  54  80 N12       29.92F
O`NEILL        CLOUDY    55  55 100 N7        29.97S FOG
ORD            CLOUDY    75  57  53 N10       29.89F
THEDFORD       DRIZZLE   51  50  97 NE7       29.97F
$$

NEZ041-046>049-061>064-073>077-083>087-232000-
SOUTH CENTRAL NEBRASKA

CITY           SKY/WX    TMP DP  RH WIND       PRES   REMARKS
GRAND ISLAND   MOSUNNY   82  64  54 S14G24    29.90F
AURORA         CLOUDY    81  69  68 S8        29.91F
HASTINGS       CLOUDY    80  66  62 S6        29.92F
HEBRON         MOSUNNY   92  63  38 S15G24    29.91F HX  93
HOLDREGE       CLOUDY    87  62  42 S17G23    29.87F
KEARNEY        MOSUNNY   88  65  46 S20G26    29.87F HX  90
YORK           PTSUNNY   90  66  45 S20G28    29.90F HX  92
$$

NEZ011>018-030>034-042>045-232000-
NORTHEAST NEBRASKA

CITY           SKY/WX    TMP DP  RH WIND       PRES   REMARKS
NORFOLK        MOSUNNY   86  68  54 S23G31    29.88F
ALBION         PTSUNNY   84  70  61 SE13G20   29.89F
BLAIR          MOSUNNY   88  67  49 S15       29.94F HX  91
COLUMBUS       CLOUDY    87  68  52 SE13G18   29.90F HX  90
FREMONT        MOSUNNY   89  66  46 SE15G22   29.92F HX  92
TEKAMAH        MOSUNNY   89  68  49 S12G21    29.92F HX  93
WAYNE          PTSUNNY   82  72  70 S16       29.90F
$$

NEZ050>053-065>068-078-088>093-232000-
SOUTHEAST NEBRASKA

CITY           SKY/WX    TMP DP  RH WIND       PRES   REMARKS
LINCOLN        MOSUNNY   92  65  40 S17G25    29.91F HX  94
OMAHA EPPLEY   PTSUNNY   90  66  45 S24       29.93F HX  92
BEATRICE       MOSUNNY   90  66  45 S21       29.93F HX  93
FALLS CITY     MOSUNNY   89  65  44 S17G25    29.96F HX  91
NEBRASKA CITY  PTSUNNY   88  66  48 S16G24    29.95F HX  90
PLATTSMOUTH    MOSUNNY   90  66  45 S17G24    29.94F HX  93
$$

NEZ044-045-051>053-067-232000-
OMAHA AREA

CITY           SKY/WX    TMP DP  RH WIND       PRES   REMARKS
OMAHA EPPLEY   PTSUNNY   90  66  45 S24       29.93F HX  92
BLAIR          MOSUNNY   88  67  49 S15       29.94F HX  91
FREMONT        MOSUNNY   89  66  46 SE15G22   29.92F HX  92
MILLARD        MOSUNNY   91  68  46 S13G18    29.93F HX  95
OFFUTT AFB     SUNNY     90  66  45 SE21G26   29.93F HX  92
PLATTSMOUTH    MOSUNNY   90  66  45 S17G24    29.94F HX  93
WAHOO          FAIR      92  63  38 S18       29.92F HX  93
$$




USA.gov is the U.S. government's official web portal to all federal, state and local government web resources and services.